Location: Fresneaux
(49.2811°N, 2.0035°E)
Time: 20:13:17
(UTC+00:00)

Daily predictions for brighter satellites

Satellite Brightness Start Highest point End
(mag) Time Altitude Azimuth Time Altitude Azimuth Time Altitude Azimuth
Cosmos 2263 Rocket 3.1 20:12:40 10° NNW 20:17:52 37° NE 20:23:01 10° ESE
SPOT 1/Viking Rocket 3.6 20:12:54 10° SSE 20:18:03 76° ENE 20:23:14 10° NNW
IRAS Rocket 4.4 20:14:27 10° NNE 20:20:01 59° ESE 20:25:35 10° S
Cosmos 1743 2.8 20:16:50 10° N 20:20:36 58° ENE 20:24:19 10° SSE
Nadezhda 4 Rocket 4.3 20:17:06 10° N 20:23:10 51° ENE 20:29:09 10° SSE
Cosmos 1656 4.2 20:18:54 10° SW 20:24:25 66° WNW 20:29:56 10° NNE
Aureole 1 Rocket 2.6 20:21:42 10° S 20:24:44 40° ESE 20:27:34 10° NE
Cosmos 1184 Rocket 3.1 20:25:50 10° SSE 20:28:40 39° E 20:31:31 10° NNE
H-2A R/B 2.4 20:26:06 10° N 20:30:11 66° WNW 20:34:15 10° SSW
Cosmos 2227 Rocket 2.9 20:28:41 10° NW 20:34:11 51° WSW 20:39:38 10° S
ARIANE 5 R/B 4.2 20:31:14 10° ESE 20:34:45 23° ENE 20:38:18 10° N
CZ-4B R/B 1.5 20:33:52 10° N 20:37:05 71° WNW 20:40:13 10° SSW
Cosmos 1328 Rocket 4.3 20:35:23 10° SSW 20:39:37 55° WNW 20:43:54 10° N
Timation 2 Rocket 4.2 20:34:02 10° NNW 20:40:36 80° ENE 20:47:19 10° SSE
Cosmos 1072 Rocket 4.5 20:37:01 10° S 20:43:06 81° E 20:49:16 10° N
Ariane Rocket 3.3 20:38:53 10° S 20:43:56 70° WSW 20:49:02 10° NNW
Cosmos 1980 Rocket 2.4 20:40:08 10° S 20:45:33 51° ESE 20:51:02 10° NE
Cosmos 1536 3.3 20:41:59 10° NNW 20:45:59 63° W 20:49:57 10° S
Cosmos 2344 3.5 20:40:45 10° SSW 20:48:04 60° ESE 20:55:35 10° NE
RESURS DK-1 3.3 20:47:35 10° SSE 20:51:07 28° ESE 20:54:39 10° NE
Okean 1 3.7 20:47:36 10° SSE 20:51:26 47° E 20:55:19 10° NNE
Cosmos 2369 3.7 20:47:12 10° SSW 20:52:46 66° ESE 20:58:24 10° NNE
Cosmos 2322 Rocket 4.0 20:51:51 10° ESE 20:54:03 12° E 20:56:18 10° ENE
Meteor 1-19 Rocket 4.3 20:48:52 10° S 20:54:07 53° E 20:59:22 10° NNE
ATLAS CENTAUR R/B 4.1 20:51:48 10° NNW 20:55:13 18° NNE 20:58:34 10° ENE
SL-4 R/B 3.4 20:53:08 10° W 20:57:09 31° SW 21:00:27 13° SSE
Cosmos 482 Debris 3.7 20:54:28 10° WNW 20:57:12 81° SSW 21:01:02 12° ESE
Cosmos 1844 Rocket 4.5 20:53:12 10° N 20:57:30 22° NE 21:01:46 10° E
SL-24 R/B - RUBIN 2 4.3 20:54:28 10° NNW 20:58:42 46° NE 21:02:43 12° ESE
Cosmos 1933 Rocket 4.0 20:56:31 10° NNW 21:00:56 63° W 21:05:20 10° S
Cosmos 1378 4.1 20:58:34 15° SE 21:01:00 29° E 21:04:14 10° NNE
SPOT 5 3.1 20:57:31 12° SSE 21:02:26 70° ENE 21:07:33 10° N
Cosmos 783 Rocket 4.5 20:57:51 10° NNW 21:03:05 84° ENE 21:07:35 14° SSE
Cosmos 1697 Rocket 3.2 20:59:14 10° SW 21:04:52 67° WNW 21:10:32 10° NNE
Cosmos 1733 Rocket 4.2 21:04:33 10° N 21:08:31 30° ENE 21:11:30 15° SE
Terra 2.1 21:04:47 15° SE 21:08:39 55° ENE 21:13:19 10° N
Cosmos 2297 Rocket 4.4 21:06:45 10° WNW 21:10:37 19° W 21:14:28 10° SW
Meteor 2-21 4.5 21:04:29 10° N 21:10:37 88° E 21:16:27 12° S
Cosmos 2034 Rocket 4.0 21:05:05 10° S 21:11:23 85° E 21:17:47 10° N
SPOT 3 Rocket 3.9 21:07:23 10° S 21:12:28 63° WSW 21:17:36 10° NNW
Cosmos 1975 3.2 21:11:31 10° N 21:15:31 52° ENE 21:18:16 19° SSE
Cosmos 1354 Rocket 4.0 21:10:30 10° SSW 21:15:46 80° ESE 21:21:06 10° NNE
Cosmos 2227 4.5 21:10:32 10° NNW 21:16:17 63° ENE 21:20:48 17° SE
Cosmos 1777 Rocket 4.2 21:11:31 10° S 21:16:34 53° ESE 21:21:41 10° NNE
Spot 2 Rocket 3.5 21:13:13 13° SSE 21:17:41 85° WSW 21:22:45 10° NNW
SJ 16-02 1.3 21:13:35 10° SSW 21:17:56 71° ESE 21:22:18 10° NNE
Cosmos 773 Rocket 4.1 21:14:10 10° NNW 21:19:25 74° WSW 21:23:36 16° SSE
Helios 1A Rocket 3.2 21:17:01 13° S 21:20:28 64° WSW 21:24:28 10° NNW
Meteor 2-9 Rocket 4.4 21:14:58 10° NNW 21:20:47 77° W 21:25:55 13° S
BREEZE M DEB (TANK) 4.0 21:18:10 10° W 21:22:14 59° SSW 21:37:06 10° SE
Meteor 2-21 Rocket 4.4 21:17:54 10° N 21:24:02 85° E 21:29:12 15° S
ISS -3.8 21:22:37 10° WNW 21:25:58 68° SSW 21:27:54 23° SE
ATLAS 2AS CENTAUR R/B 3.0 21:19:35 10° SSW 21:27:17 67° SE 21:34:45 10° NE
Resurs 01 Rocket 3.9 21:26:19 10° SW 21:29:31 20° W 21:32:45 10° NW
SL-16 R/B 2.9 21:28:34 18° SSE 21:32:04 34° ESE 21:37:07 10° NE
NOSS 3-4 (A) 4.3 21:26:28 10° WSW 21:32:06 52° NW 21:38:20 10° NE
NOSS 3-4 (C) 4.3 21:26:30 10° WSW 21:32:11 52° NW 21:38:24 10° NE
Cosmos 2292 Rocket 2.5 21:29:21 10° N 21:32:27 88° W 21:33:59 26° S
Meteor 2-16 Rocket 4.5 21:30:36 10° N 21:36:48 89° E 21:41:37 17° S
USA 267 4.0 21:31:27 10° E 21:37:44 52° NNE 21:44:01 10° WNW
Meteor 1-18 Rocket 4.2 21:32:47 11° S 21:38:19 81° E 21:43:58 10° NNE
USA 81 4.1 21:40:09 18° S 21:44:02 69° E 21:49:18 10° N
Meteor 1-4 Rocket 3.4 21:45:12 10° N 21:48:25 34° ENE 21:49:45 25° ESE
Cosmos 158 Rocket 4.1 21:43:45 10° NNW 21:48:51 70° WSW 21:52:16 22° S
Cosmos 2228 Rocket 3.6 21:45:00 10° SSW 21:49:30 61° WNW 21:54:02 10° N
Cosmos 2278 3.7 21:46:12 10° SSW 21:51:53 84° WNW 21:57:37 10° NNE
ATLAS 3B R/B 2.9 21:46:22 10° NW 21:53:44 86° NE 21:59:21 20° SE
NOSS 2-1 (E) 3.2 21:55:29 36° SSE 21:55:55 38° SE 21:58:57 10° NE
Cosmos 1538 Rocket 4.0 21:51:07 10° NNW 21:56:24 84° WSW 21:59:31 25° SSE
ERS-1 Rocket 3.7 21:52:48 15° SSW 21:56:40 47° W 22:01:33 10° NNW
Cosmos 44 Rocket 3.4 21:52:34 10° NW 21:57:14 60° WSW 21:59:42 26° SSE
SAR-Lupe-4 3.6 21:53:54 10° NNE 21:57:29 61° ESE 21:58:59 31° S
BREEZE-M DEB (TANK) 2.3 21:55:44 10° W 21:58:04 46° SSW 21:59:31 29° SE
Cosmos 2360 Rocket 3.3 21:56:46 22° SE 21:58:40 26° ESE 22:03:16 10° NE
Cosmos 2263 Rocket 2.9 21:56:37 10° NW 22:01:54 44° WSW 22:05:28 19° S
Cosmos 1346 Rocket 2.7 21:59:32 23° S 22:01:58 89° WNW 22:06:01 10° NNE
Okean 1-7 4.2 22:05:26 24° ESE 22:06:50 29° E 22:10:36 10° NNE
Cosmos 1441 Rocket 3.3 22:06:52 35° SSE 22:08:08 55° E 22:11:47 10° NNE
Geosat 4.0 22:06:25 26° SSE 22:09:16 76° WSW 22:14:19 10° NNW
Cosmos 1726 3.5 22:06:31 10° NNE 22:09:43 27° ENE 22:10:55 23° ESE
ARIANE 5 R/B 3.3 22:08:13 21° SSW 22:10:55 48° W 22:15:18 10° NNW
Cosmos 923 Rocket 4.2 22:09:18 10° NNW 22:14:38 67° ENE 22:17:34 27° SE
Cosmos 1634 Rocket 4.2 22:09:45 13° SSW 22:15:20 68° WNW 22:21:31 10° N
Cosmos 1707 Rocket 4.1 22:14:53 17° SSW 22:18:10 56° WNW 22:22:31 10° N
SAR-Lupe-1 4.3 22:14:52 10° N 22:18:26 66° WNW 22:20:20 26° SSW
Cosmos 1356 3.5 22:19:27 46° SE 22:20:01 54° E 22:23:16 10° NNE
Cosmos 1066 Rocket 4.3 22:18:38 26° S 22:21:58 69° E 22:27:36 10° NNE
Iridium 2 3.7 22:19:28 10° N 22:23:13 71° W 22:24:37 36° SSW
RESURS DK-1 3.9 22:25:10 10° WSW 22:29:00 36° NW 22:32:50 10° NNE
Cosmos 1980 Rocket 3.9 22:24:41 10° WSW 22:29:47 34° NW 22:34:57 10° NNE
Cosmos 1655 Rocket 4.1 22:25:23 10° N 22:31:38 70° ENE 22:35:02 28° SSE
Meteor 2-15 Rocket 4.5 22:27:36 20° SSW 22:31:54 78° W 22:38:02 10° N
Cosmos 1703 Rocket 4.0 22:31:17 34° SE 22:32:43 48° E 22:37:00 10° NNE
CZ-4C R/B 3.7 22:27:01 10° NW 22:33:36 48° NE 22:41:27 10° ESE
ATLAS CENTAUR R/B 2.3 22:30:16 10° NNW 22:35:04 52° NE 22:38:00 22° ESE
Cosmos 2112 Rocket 4.2 22:29:55 10° NNW 22:35:15 65° ENE 22:37:57 29° SE
NOSS 2-1 (C) 3.0 22:34:19 21° SW 22:36:18 68° NW 22:39:35 10° NE
Cosmos 1680 Rocket 3.6 22:31:20 10° NNW 22:36:41 76° ENE 22:39:14 31° SE
Cosmos 2322 Rocket 2.1 22:33:36 24° SSW 22:37:06 75° ESE 22:42:43 10° NNE
Cosmos 2333 Rocket 3.1 22:37:44 26° SE 22:39:18 31° ESE 22:44:12 10° NE
Cosmos 1805 3.4 22:35:46 10° NNW 22:39:38 63° W 22:40:54 38° SSW
Cosmos 1818 3.7 22:34:57 10° NW 22:40:27 73° NE 22:43:33 26° SE
Cosmos 990 Rocket 3.9 22:38:01 27° SSW 22:40:55 80° ESE 22:46:12 10° NNE
Cosmos 1844 Rocket 2.6 22:36:32 10° NNW 22:42:11 89° WSW 22:44:54 32° SSE
USA 215 3.4 22:37:32 10° ENE 22:43:55 52° SE 22:49:02 16° SSW
Cosmos 1782 Rocket 3.8 22:41:44 10° N 22:46:03 56° ENE 22:47:32 36° SE
Cosmos 1733 Rocket 4.4 22:42:21 10° NNW 22:46:17 31° W 22:48:35 20° SW
Terra 3.7 22:43:40 12° SW 22:46:44 21° W 22:50:21 10° NW
NOSS 2-1 (D) 3.5 22:44:33 17° WSW 22:46:48 53° NW 22:50:03 10° NE
Cosmos 1898 Rocket 3.5 22:48:40 33° S 22:51:04 67° ESE 22:56:23 10° NNE
Cosmos 1766 3.2 22:49:23 10° N 22:53:20 84° W 22:54:22 48° S
Iridium 4 Rocket 3.2 22:50:33 10° N 22:55:05 89° W 22:56:59 37° S
SJ 16-02 4.1 22:54:05 10° W 22:57:00 17° NW 22:59:55 10° N
Cosmos 1908 Rocket 3.7 22:52:49 10° NNW 22:57:07 63° W 22:58:35 38° SSW
Cosmos 1733 4.2 22:54:08 10° NNW 22:57:40 37° W 22:58:45 30° SW
ADEOS Rocket 3.4 22:55:22 25° SE 22:58:30 51° ENE 23:04:20 10° N
Cosmos 2242 Rocket 3.6 22:59:31 41° SSE 23:01:01 71° E 23:05:33 10° NNE
Spot 4 3.8 22:59:45 38° S 23:01:36 78° WSW 23:06:26 10° NNW
ISS -1.3 23:00:12 10° W 23:00:49 12° WSW 23:00:49 12° WSW
Cosmos 1844 3.7 22:56:50 10° NNW 23:02:40 76° WSW 23:05:17 34° SSE
ALOS 2 2.7 23:01:10 40° SE 23:02:40 70° ENE 23:07:04 10° N
Cosmos 2219 Rocket 3.0 23:01:15 30° SE 23:02:48 35° ESE 23:07:49 10° NE
Cosmos 1300 Rocket 4.1 22:59:38 10° N 23:03:52 47° ENE 23:05:18 34° SE
Cosmos 2266 Rocket 4.2 23:02:34 10° NNW 23:08:47 65° W 23:11:54 30° SSW
Cosmos 1900 4.4 23:09:31 36° SSW 23:11:29 67° ESE 23:16:36 10° NE
Cosmos 1707 3.4 23:15:00 36° ESE 23:15:32 39° E 23:19:10 10° NNE
SL-16 R/B 3.1 23:10:33 10° SW 23:16:01 48° NW 23:21:31 10° NNE
ATLAS 2AS CENTAUR R/B 4.0 23:11:19 10° WSW 23:18:42 46° NNW 23:25:48 10° NE
USA 229 DEB 4.5 23:11:42 10° NW 23:18:48 56° NE 23:26:24 10° ESE
USA 229 4.5 23:11:48 10° NW 23:18:53 56° NE 23:26:28 10° ESE
USA 267 3.2 23:14:57 15° ESE 23:20:31 87° SSW 23:27:07 10° WNW
ASTEX 1 4.3 23:19:24 10° NNE 23:23:55 36° E 23:25:37 28° SE
Meteor 2-17 Rocket 4.4 23:20:19 10° N 23:26:32 88° E 23:29:25 34° S
Cosmos 1470 2.6 23:25:37 10° NNW 23:29:30 82° W 23:30:11 58° S
ERS-2 2.0 23:26:48 10° NNE 23:30:26 89° E 23:30:57 64° SSW
Sich 1 Rocket 3.8 23:26:21 10° N 23:30:43 60° ENE 23:32:05 40° SE
Cosmos 2237 Rocket 4.0 23:29:40 15° ESE 23:31:18 17° E 23:34:46 10° ENE
COSMOS 2428 3.3 23:30:19 33° SSE 23:32:04 42° ESE 23:37:24 10° NE
Cosmos 372 Rocket 3.9 23:32:33 39° SSW 23:34:31 81° ESE 23:39:43 10° NNE
Cosmos 2360 Rocket 2.6 23:38:29 21° SW 23:42:16 59° WNW 23:47:53 10° NNE
Cosmos 1437 Rocket 4.2 23:39:22 10° N 23:42:39 27° ENE 23:43:57 22° ESE
Cosmos 405 Rocket 4.1 23:43:02 25° ESE 23:43:31 26° E 23:46:41 10° NE
ATLAS 3B R/B 4.1 23:37:51 10° WNW 23:43:49 27° WSW 23:46:36 22° SW
Okean 1-7 4.4 23:42:14 22° WSW 23:44:17 32° WNW 23:48:15 10° N
Meteor 1-21 4.3 23:42:06 36° S 23:44:32 71° E 23:50:20 10° NNE
Cosmos 1726 3.7 23:41:38 10° NW 23:44:37 24° W 23:45:12 23° WSW
Okean 1 Rocket 4.4 23:40:54 10° N 23:44:53 32° ENE 23:46:55 22° ESE
Cosmos 2333 4.1 23:42:27 32° SSW 23:45:11 86° WNW 23:50:52 10° NNE
NOSS 3-1 (A) 4.1 23:38:16 10° NW 23:45:35 83° NE 23:53:17 14° SE
Cosmos 1908 3.7 23:45:21 10° N 23:49:04 51° ENE 23:49:54 42° ESE
Cosmos 1953 3.7 23:45:42 10° N 23:49:19 31° ENE 23:50:50 24° ESE
In-Cosmos 22 4.2 23:47:28 37° S 23:49:42 72° E 23:55:10 10° NNE
Cosmos 1842 4.1 23:51:27 33° WSW 23:52:32 40° WNW 23:56:14 10° N
